Погода в Лопатине

Россия / Калужская область     54°44′15″N   37°00′22″E
темп.,
°C
ветер,
м/с
пор.,
м/с
влажн.,
%
обл.,
%
осадки,
мм/ч
давл.,
гПа
погр.,
м
29 ноября, пн
пн2900:000ююв2292100 0.0 101051
03:00+2юв3995100 0.0 1008284
06:00+3юв31094100 0.0 1005277
09:00+2юв31095100 0.0 1004244
12:00+4вюв41094100 0.4 1002359
15:00+4вюв41098100 1.0 998420
18:00+4вюв51098100 0.0 995357
21:00+5вюв41198100 0.1 989361
30 ноября, вт
вт3000:00+6вюв71596100 2.6 982653
03:00+8ююв51396100 5.6 975607
06:00+8юз71289100 1.7 972924
09:00+3юз111895100 1.9 976955
12:00+2юз101984100 0.3 9791330
15:000юз101878100 0.4 9791329
18:00−1юз101872100 0.0 9821378
21:00−2зюз101782100 0.3 9841346
1 декабря, ср
ср100:00−2зюз9147996 0.4 9871171
03:00−2зюз71375100 1.0 9891122
06:00−2зюз61173100 0.0 9891089
09:00−2зюз51176100 0.1 9901065
12:00−1зюз5969100 0.1 9921217
15:00−2з5970100 0.2 9921204
18:00−3з51074100 0.0 9941103
21:00−4зсз597497 0.1 9961027
2 декабря, чт
чт200:00−6з5107861 0.0 998693
03:00−6з4982100 0.0 1000525
06:00−5зюз3880100 0.0 1001413
09:00−5ююз398198 0.0 1002332
12:00−3ю51267100 0.0 1001624
15:00−3ю61493100 0.9 998642
18:00−1ююз61596100 1.3 998657
21:00+1юз61497100 1.9 998759
3 декабря, пт
пт300:00+1юз51397100 0.1 999604
03:00+1юз51397100 0.2 1000633
06:00+2ююз51294100 0.0 1001581
09:00+2ююз51295100 0.0 1002618
12:00+2ююз4997100 0.0 1002533
15:000ю31199100 2.7 1001541
18:00+1ююз31098100 2.5 1000642
21:000зюз2699100 3.9 999368